OE5MIL-13 Weather Reports


time (UTC)temp
C
wind
direction
speed
KPH
gust
KPH
rain 1hr
cm
rain 24hr
cm
rain mn
cm
humidity
%
barometer
mb
20260507080540 2 203 1.6 6.4 0.00 0.00 0.00 100
20260507074539 1 354 0.0 0.0 0.00 0.00 0.00 100
20260507072539 1 354 0.0 0.0 0.00 0.00 0.00 100
20260507070537 2 153 0.0 0.0 0.00 0.00 0.00 100
20260507064536 1 153 0.0 0.0 0.00 0.00 0.00 100
20260507062535 1 153 0.0 0.0 0.00 0.00 0.00 100
20260507060533 1 153 0.0 0.0 0.00 0.00 0.00 100
20260507054532 1 153 0.0 0.0 0.00 0.00 0.00 100
20260507052531 1 153 0.0 4.8 0.00 0.00 0.00 100
20260507050529 1 143 1.6 3.2 0.00 0.00 0.00 100
20260507044528 1 154 3.2 3.2 0.00 0.00 0.00 100
20260507042527 1 120 0.0 0.0 0.00 0.00 0.00 100
20260507040526 1 99 0.0 4.8 0.00 0.00 0.00 100
20260507034525 1 80 0.0 0.0 0.00 0.00 0.00 100
20260507032524 1 80 0.0 4.8 0.00 0.00 0.00 100
20260507030523 1 292 0.0 0.0 0.00 0.00 0.00 100
20260507024521 1 292 0.0 0.0 0.00 0.00 0.00 100
20260507022520 1 292 0.0 0.0 0.00 0.00 0.00 100
20260507020519 1 292 0.0 0.0 0.00 0.00 0.00 100
20260507014518 2 292 0.0 0.0 0.00 0.00 0.00 100
20260507012517 2 292 0.0 0.0 0.00 0.00 0.00 100
20260507010516 2 292 0.0 0.0 0.00 0.00 0.00 100
20260507004516 2 292 0.0 0.0 0.00 0.00 0.00 100
20260507002513 2 292 0.0 0.0 0.00 0.00 0.00 100
20260507000512 2 292 0.0 0.0 0.00 0.00 0.00 100
20260506234511 2 292 0.0 0.0 0.00 0.00 0.00 100
20260506232510 2 292 0.0 0.0 0.00 0.00 0.00 100
20260506230509 2 292 0.0 0.0 0.00 0.00 0.00 100
20260506224508 2 292 0.0 0.0 0.00 0.00 0.00 100
20260506220505 2 292 0.0 0.0 0.00 0.00 0.00 100
20260506214504 2 292 0.0 0.0 0.00 0.00 0.00 100
20260506212503 2 355 0.0 0.0 0.00 0.00 0.00 100
20260506210502 2 327 11.3 14.5 0.00 0.00 0.00 100
20260506204501 3 322 0.0 9.7 0.00 0.00 0.00 100
20260506202501 3 316 4.8 9.7 0.00 0.00 0.00 100
20260506200458 4 317 0.0 0.0 0.00 0.00 0.00 100
20260506194457 5 333 0.0 4.8 0.00 0.00 0.00 100
20260506192456 6 157 0.0 0.0 0.00 0.00 0.00 100
20260506190455 6 288 0.0 0.0 0.00 0.00 0.00 100
20260506184454 6 282 0.0 4.8 0.00 0.00 0.00 100
20260506182453 7 289 3.2 11.3 0.00 0.00 0.00 100
20260506180452 7 320 0.0 16.1 0.00 0.00 0.00 100
20260506174450 7 116 0.0 19.3 0.00 0.00 0.00 100
20260506172449 8 293 19.3 29.0 0.00 0.00 0.00 100
20260506170448 12 144 9.7 11.3 0.00 0.00 0.00 100
20260506164447 10 165 14.5 17.7 0.00 0.00 0.00 100
20260506162446 11 305 6.4 12.9 0.00 0.00 0.00 100
20260506160445 13 144 20.9 20.9 0.00 0.00 0.00 100
20260506154443 13 149 9.7 22.5 0.00 0.00 0.00 100
20260506152442 13 180 12.9 22.5 0.00 0.00 0.00 100
20260506150441 13 188 0.0 16.1 0.00 0.00 0.00 100
20260506144440 13 158 6.4 30.6 0.00 0.00 0.00 100
20260506142439 15 140 4.8 11.3 0.00 0.00 0.00 100
20260506140438 15 191 8.0 20.9 0.00 0.00 0.00 100
20260506134437 15 175 0.0 17.7 0.00 0.00 0.00 100
20260506130434 13 46 0.0 11.3 0.00 0.00 0.00 100
20260506124433 15 264 11.3 24.1 0.00 0.00 0.00 100
20260506122432 14 116 9.7 19.3 0.00 0.00 0.00 100
20260506120431 13 338 6.4 20.9 0.00 0.00 0.00 100
20260506114430 12 355 0.0 8.0 0.00 0.00 0.00 100
20260506112429 12 9 0.0 11.3 0.00 0.00 0.00 100
20260506110427 13 175 1.6 17.7 0.00 0.00 0.00 100
20260506104426 11 291 9.7 14.5 0.00 0.00 0.00 100
20260506102426 12 206 4.8 9.7 0.00 0.00 0.00 100
20260506100424 9 196 8.0 25.7 0.00 0.00 0.00 100
20260506094423 8 209 4.8 16.1 0.00 0.00 0.00 100
20260506092422 7 268 0.0 8.0 0.00 0.00 0.00 100
20260506090421 6 322 0.0 0.0 0.00 0.00 0.00 100
20260506084419 6 11 0.0 0.0 0.00 0.00 0.00 100